Monticello, AR

5:22 AM CDT on June 27, 2017 (GMT -0500)
Monticello Municipal-Ellis

Weather History for KLLQ - December, 2013

Change the Weather History Date:

Friday, December 13, 2013

  Actual Average Record
Temperature  
Mean Temperature 36 °F -  
Max Temperature 45 °F 56 °F 78 °F (1948)
Min Temperature 28 °F 36 °F 14 °F (1989)
Degree Days  
Heating Degree Days 28    
Moisture  
Dew Point 32 °F    
Average Humidity 80    
Maximum Humidity 100    
Minimum Humidity 46    
Precipitation  
Precipitation 0.92 in - - ()
Sea Level Pressure  
Sea Level Pressure 30.10 in    
Wind  
Wind Speed 3 mph (East)    
Max Wind Speed 10 mph    
Max Gust Speed -    
Visibility 8 miles    
Events Rain    
Averages and records for this station are not official NWS values.
T = Trace of Precipitation, MM = Missing Value Source: NWS Daily Summary

Daily Weather History Graph

Daily Weather History Graph

Search for Another Location

Airport or City:

Trip Planner

Search our weather history database for the weather conditions in past years. The results will help you decide how hot, cold, wet, or windy it might be!

Date:

Astronomy

Dec. 13, 2013 Rise Set
Actual Time 7:02 AM CST 4:59 PM CST
Civil Twilight 6:35 AM CST 5:27 PM CST
Nautical Twilight 6:04 AM CST 5:58 PM CST
Astronomical Twilight 5:33 AM CST 6:28 PM CST
Moon 2:36 PM CST (12/13) 3:33 AM CST (12/13)
Length of Visible Light 10h 51m
Length of Day
9h 56m
Waxing Gibbous, 88% of the Moon is Illuminated
Dec 13
Waxing Gibbous
Dec 17
Full
Dec 25
Last Quarter
Jan 1
New
Jan 7
First Quarter

Hourly Weather History & Observations

Time (CST) Temp. Windchill Dew Point Humidity Pressure Visibility Wind Dir Wind Speed Gust Speed Precip Events Conditions
12:53 AM 28.9 °F - 24.1 °F 82% 30.37 in 10.0 mi Calm Calm - N/A   Clear
1:53 AM 30.0 °F - 26.1 °F 85% 30.37 in 10.0 mi Calm Calm - N/A   Clear
2:53 AM 28.9 °F - 25.0 °F 85% 30.34 in 10.0 mi Calm Calm - N/A   Clear
3:53 AM 33.1 °F 30.0 °F 26.1 °F 75% 30.32 in 10.0 mi SE 3.5 mph - N/A   Clear
4:53 AM 34.0 °F 29.8 °F 25.0 °F 70% 30.28 in 10.0 mi ESE 4.6 mph - N/A   Clear
5:53 AM 34.0 °F - 25.0 °F 70% 30.29 in 10.0 mi Calm Calm - N/A   Clear
6:53 AM 32.0 °F - 27.0 °F 82% 30.30 in 10.0 mi Calm Calm - N/A   Mostly Cloudy
7:53 AM 34.0 °F - 27.0 °F 75% 30.30 in 10.0 mi Calm Calm - N/A   Clear
8:53 AM 37.9 °F 34.4 °F 26.1 °F 62% 30.29 in 10.0 mi SE 4.6 mph - N/A   Clear
9:53 AM 41.0 °F 37.1 °F 23.0 °F 49% 30.26 in 10.0 mi SE 5.8 mph - N/A   Clear
10:53 AM 43.0 °F 38.2 °F 25.0 °F 49% 30.20 in 10.0 mi SE 8.1 mph - N/A   Clear
11:53 AM 45.0 °F 41.8 °F 25.0 °F 46% 30.16 in 10.0 mi SE 5.8 mph - N/A   Clear
12:53 PM 45.0 °F 43.5 °F 26.1 °F 48% 30.16 in 10.0 mi South 3.5 mph - N/A   Partly Cloudy
1:53 PM 45.0 °F 43.5 °F 27.0 °F 49% 30.13 in 10.0 mi South 3.5 mph - N/A   Overcast
2:53 PM 39.9 °F 37.8 °F 36.0 °F 86% 30.10 in 8.0 mi East 3.5 mph - 0.04 in Rain Light Rain
3:53 PM 39.9 °F - 36.0 °F 86% 30.09 in 10.0 mi Calm Calm - 0.04 in Rain Light Rain
4:53 PM 39.9 °F - 36.0 °F 86% 30.08 in 10.0 mi Calm Calm - 0.00 in Rain Light Rain
5:53 PM 39.0 °F 36.8 °F 36.0 °F 89% 30.05 in 10.0 mi East 3.5 mph - 0.06 in Rain Light Rain
6:53 PM 39.0 °F 34.8 °F 36.0 °F 89% 30.01 in 10.0 mi East 5.8 mph - 0.04 in Rain Light Rain
7:03 PM 39.2 °F 37.0 °F 35.6 °F 87% 30.01 in 10.0 mi NE 3.5 mph - 0.00 in Rain Light Rain
7:53 PM 39.0 °F 32.3 °F 36.0 °F 89% 29.96 in 7.0 mi ENE 10.4 mph - 0.03 in Rain Rain
8:53 PM 39.9 °F 33.9 °F 37.0 °F 89% 29.93 in 8.0 mi East 9.2 mph - 0.06 in Rain Light Rain
9:53 PM 39.9 °F 35.8 °F 37.9 °F 93% 29.91 in 4.0 mi NE 5.8 mph - 0.06 in Rain Light Rain
10:04 PM 39.2 °F 35.9 °F 37.4 °F 93% 29.91 in 5.0 mi NW 4.6 mph - 0.00 in Rain Light Rain
10:21 PM 39.2 °F 37.0 °F 37.4 °F 93% 29.90 in 2.5 mi ENE 3.5 mph - 0.07 in Rain Heavy Rain
10:38 PM 39.2 °F 35.0 °F 39.2 °F 100% 29.89 in 2.5 mi ENE 5.8 mph - 0.18 in Rain Heavy Rain
10:50 PM 39.2 °F 33.0 °F 37.4 °F 93% 29.87 in 2.5 mi East 9.2 mph - 0.26 in Rain Heavy Rain
10:53 PM 39.9 °F 34.5 °F 39.0 °F 97% 29.86 in 2.5 mi East 8.1 mph - 0.28 in Rain Heavy Rain
11:12 PM 42.8 °F 39.3 °F 39.2 °F 87% 29.86 in 3.0 mi East 5.8 mph - 0.10 in Rain Heavy Rain
11:39 PM 42.8 °F 41.1 °F 41.0 °F 93% 29.88 in 2.5 mi NW 3.5 mph - 0.21 in Rain Heavy Rain
11:53 PM 42.1 °F 36.6 °F 39.9 °F 92% 29.92 in 2.0 mi WNW 9.2 mph - 0.31 in Rain Heavy Rain